Malmstrom AFB, MT

11:54 PM MDT on September 25, 2017 (GMT -0600)
Malmstrom AFB

Weather History for KGFA - October, 2013

Change the Weather History Date:

Sunday, October 20, 2013

  Actual Average (KGTF) Record (KGTF)
Temperature  
Mean Temperature 49 °F -  
Max Temperature 57 °F 60 °F 81 °F (1974)
Min Temperature 41 °F 35 °F 16 °F (1984)
Degree Days  
Heating Degree Days 16    
Moisture  
Dew Point 33 °F    
Average Humidity 57    
Maximum Humidity 79    
Minimum Humidity 32    
Precipitation  
Precipitation 0.00 in - - ()
Sea Level Pressure  
Sea Level Pressure 30.15 in    
Wind  
Wind Speed 7 mph (WSW)    
Max Wind Speed 10 mph    
Max Gust Speed -    
Visibility 10 miles    
Events      
Averages and records for this station are not official NWS values.
T = Trace of Precipitation, MM = Missing Value Source: NWS Daily Summary

Daily Weather History Graph

Daily Weather History Graph

Search for Another Location

Airport or City:

Trip Planner

Search our weather history database for the weather conditions in past years. The results will help you decide how hot, cold, wet, or windy it might be!

Date:

Astronomy

Oct. 20, 2013 Rise Set
Actual Time 7:51 AM MDT 6:26 PM MDT
Civil Twilight 7:19 AM MDT 6:58 PM MDT
Nautical Twilight 6:44 AM MDT 7:33 PM MDT
Astronomical Twilight 6:08 AM MDT 8:09 PM MDT
Moon 7:29 PM MDT (10/20) 9:40 AM MDT (10/20)
Length of Visible Light 11h 38m
Length of Day
10h 35m
Full, 97% of the Moon is Illuminated
Oct 20
Full
Oct 26
Last Quarter
Nov 3
New
Nov 9
First Quarter
Nov 17
Full

Hourly Weather History & Observations

Time (MDT) Temp. Windchill Dew Point Humidity Pressure Visibility Wind Dir Wind Speed Gust Speed Precip Events Conditions
12:56 AM 46.9 °F - 36.0 °F 66% 30.13 in 10.0 mi West 10.4 mph - 0.00 in   Overcast
1:56 AM 46.0 °F 41.9 °F 36.0 °F 68% 30.15 in 10.0 mi West 8.1 mph - N/A   Overcast
2:56 AM 45.0 °F 40.1 °F 37.0 °F 74% 30.16 in 10.0 mi West 9.2 mph - N/A   Overcast
3:56 AM 44.1 °F 39.5 °F 37.0 °F 76% 30.17 in 10.0 mi WSW 8.1 mph - N/A   Overcast
4:56 AM 43.0 °F 38.2 °F 36.0 °F 76% 30.17 in 10.0 mi WSW 8.1 mph - N/A   Overcast
5:56 AM 43.0 °F 38.8 °F 36.0 °F 76% 30.18 in 10.0 mi WSW 6.9 mph - N/A   Overcast
6:56 AM 43.0 °F 39.5 °F 35.1 °F 74% 30.18 in 10.0 mi SW 5.8 mph - N/A   Overcast
7:56 AM 41.0 °F 37.1 °F 35.1 °F 79% 30.19 in 10.0 mi SSW 5.8 mph - N/A   Overcast
8:56 AM 43.0 °F 39.5 °F 36.0 °F 76% 30.19 in 10.0 mi SSW 5.8 mph - N/A   Overcast
9:56 AM 45.0 °F 41.8 °F 36.0 °F 71% 30.20 in 10.0 mi SW 5.8 mph - N/A   Overcast
10:56 AM 46.9 °F - 35.1 °F 63% 30.19 in 10.0 mi SW 10.4 mph - N/A   Overcast
11:56 AM 48.9 °F - 33.1 °F 54% 30.18 in 10.0 mi SW 4.6 mph - N/A   Overcast
12:56 PM 52.0 °F - 33.1 °F 49% 30.16 in 10.0 mi SW 6.9 mph - N/A   Mostly Cloudy
1:56 PM 54.0 °F - 30.9 °F 41% 30.13 in 10.0 mi SW 6.9 mph - N/A   Clear
2:56 PM 55.0 °F - 30.0 °F 38% 30.12 in 10.0 mi WSW 5.8 mph - N/A   Clear
3:56 PM 57.0 °F - 28.9 °F 34% 30.11 in 10.0 mi West 6.9 mph - N/A   Partly Cloudy
4:56 PM 57.9 °F - 28.0 °F 32% 30.11 in 10.0 mi WSW 8.1 mph - N/A   Scattered Clouds
5:56 PM 55.9 °F - 28.0 °F 34% 30.11 in 10.0 mi West 3.5 mph - N/A   Partly Cloudy
6:56 PM 55.0 °F - 28.0 °F 35% 30.12 in 10.0 mi West 3.5 mph - N/A   Overcast
7:56 PM 54.0 °F - 28.9 °F 38% 30.13 in 10.0 mi Calm Calm - N/A   Overcast
8:56 PM 53.1 °F - 30.0 °F 41% 30.13 in 10.0 mi West 3.5 mph - N/A   Overcast
10:56 PM 50.0 °F - 30.9 °F 48% 30.16 in 10.0 mi WSW 6.9 mph - N/A   Overcast
11:56 PM 45.0 °F 40.1 °F 33.1 °F 63% 30.16 in 10.0 mi SSW 9.2 mph - N/A   Mostly Cloudy